Year,Month,Day,Hour,Minute,Value (Times are PST for temperature in C)
2007,08,29,00,00,13.50
2007,08,29,00,01,13.40
2007,08,29,00,02,13.40
2007,08,29,00,03,13.40
2007,08,29,00,04,13.40
2007,08,29,00,05,13.40
2007,08,29,00,06,13.40
2007,08,29,00,07,13.40
2007,08,29,00,08,13.40
2007,08,29,00,09,13.40
2007,08,29,00,10,13.40
2007,08,29,00,11,13.40
2007,08,29,00,12,13.30
2007,08,29,00,13,13.30
2007,08,29,00,14,13.30
2007,08,29,00,15,13.30
2007,08,29,00,16,13.30
2007,08,29,00,17,13.30
2007,08,29,00,18,13.30
2007,08,29,00,19,13.30
2007,08,29,00,20,13.30
2007,08,29,00,21,13.30
2007,08,29,00,22,13.30
2007,08,29,00,23,13.30
2007,08,29,00,24,13.30
2007,08,29,00,25,13.30
2007,08,29,00,26,13.30
2007,08,29,00,27,13.30
2007,08,29,00,28,13.30
2007,08,29,00,29,13.30
2007,08,29,00,30,13.30
2007,08,29,00,31,13.30
2007,08,29,00,32,13.30
2007,08,29,00,33,13.30
2007,08,29,00,34,13.30
2007,08,29,00,35,13.30
2007,08,29,00,36,13.30
2007,08,29,00,37,13.30
2007,08,29,00,38,13.30
2007,08,29,00,39,13.30
2007,08,29,00,40,13.30
2007,08,29,00,41,13.20
2007,08,29,00,42,13.20
2007,08,29,00,43,13.20
2007,08,29,00,44,13.20
2007,08,29,00,45,13.20
2007,08,29,00,46,13.20
2007,08,29,00,47,13.20
2007,08,29,00,48,13.10
2007,08,29,00,49,13.10
2007,08,29,00,50,13.10
2007,08,29,00,51,13.00
2007,08,29,00,52,13.00
2007,08,29,00,53,13.00
2007,08,29,00,54,13.00
2007,08,29,00,55,13.00
2007,08,29,00,56,13.00
2007,08,29,00,57,13.00
2007,08,29,00,58,12.90
2007,08,29,00,59,12.90
2007,08,29,01,00,12.90
2007,08,29,01,01,12.90
2007,08,29,01,02,12.90
2007,08,29,01,03,12.90
2007,08,29,01,04,12.90
2007,08,29,01,05,12.90
2007,08,29,01,06,12.90
2007,08,29,01,07,12.80
2007,08,29,01,08,12.80
2007,08,29,01,09,12.80
2007,08,29,01,10,12.80
2007,08,29,01,11,12.80
2007,08,29,01,12,12.80
2007,08,29,01,13,12.80
2007,08,29,01,14,12.80
2007,08,29,01,15,12.80
2007,08,29,01,16,12.80
2007,08,29,01,17,12.80
2007,08,29,01,18,12.80
2007,08,29,01,19,12.80
2007,08,29,01,20,12.80
2007,08,29,01,21,12.80
2007,08,29,01,22,12.80
2007,08,29,01,23,12.80
2007,08,29,01,24,12.70
2007,08,29,01,25,12.70
2007,08,29,01,26,12.70
2007,08,29,01,27,12.70
2007,08,29,01,28,12.70
2007,08,29,01,29,12.70
2007,08,29,01,30,12.70
2007,08,29,01,31,12.70
2007,08,29,01,32,12.70
2007,08,29,01,33,12.60
2007,08,29,01,34,12.60
2007,08,29,01,35,12.70
2007,08,29,01,36,12.70
2007,08,29,01,37,12.70
2007,08,29,01,38,12.70
2007,08,29,01,39,12.70
2007,08,29,01,40,12.70
2007,08,29,01,41,12.70
2007,08,29,01,42,12.70
2007,08,29,01,43,12.70
2007,08,29,01,44,12.70
2007,08,29,01,45,12.70
2007,08,29,01,46,12.70
2007,08,29,01,47,12.60
2007,08,29,01,48,12.60
2007,08,29,01,49,12.60
2007,08,29,01,50,12.60
2007,08,29,01,51,12.60
2007,08,29,01,52,12.60
2007,08,29,01,53,12.60
2007,08,29,01,54,12.60
2007,08,29,01,55,12.60
2007,08,29,01,56,12.60
2007,08,29,01,57,12.60
2007,08,29,01,58,12.50
2007,08,29,01,59,12.50
2007,08,29,02,00,12.50
2007,08,29,02,01,12.50
2007,08,29,02,02,12.50
2007,08,29,02,03,12.50
2007,08,29,02,04,12.50
2007,08,29,02,05,12.50
2007,08,29,02,06,12.40
2007,08,29,02,07,12.40
2007,08,29,02,08,12.40
2007,08,29,02,09,12.30
2007,08,29,02,10,12.30
2007,08,29,02,11,12.30
2007,08,29,02,12,12.30
2007,08,29,02,13,12.30
2007,08,29,02,14,12.30
2007,08,29,02,15,12.30
2007,08,29,02,16,12.30
2007,08,29,02,17,12.30
2007,08,29,02,18,12.30
2007,08,29,02,19,12.30
2007,08,29,02,20,12.30
2007,08,29,02,21,12.30
2007,08,29,02,22,12.30
2007,08,29,02,23,12.30
2007,08,29,02,24,12.30
2007,08,29,02,25,12.20
2007,08,29,02,26,12.20
2007,08,29,02,27,12.20
2007,08,29,02,28,12.20
2007,08,29,02,29,12.20
2007,08,29,02,30,12.20
2007,08,29,02,31,12.20
2007,08,29,02,32,12.20
2007,08,29,02,33,12.10
2007,08,29,02,34,12.10
2007,08,29,02,35,12.10
2007,08,29,02,36,12.10
2007,08,29,02,37,12.10
2007,08,29,02,38,12.10
2007,08,29,02,39,12.10
2007,08,29,02,40,12.10
2007,08,29,02,41,12.10
2007,08,29,02,42,12.10
2007,08,29,02,43,12.10
2007,08,29,02,44,12.10
2007,08,29,02,45,12.10
2007,08,29,02,46,12.10
2007,08,29,02,47,12.10
2007,08,29,02,48,12.10
2007,08,29,02,49,12.10
2007,08,29,02,50,12.10
2007,08,29,02,51,12.10
2007,08,29,02,52,12.10
2007,08,29,02,53,12.10
2007,08,29,02,54,12.10
2007,08,29,02,55,12.00
2007,08,29,02,56,12.00
2007,08,29,02,57,12.00
2007,08,29,02,58,12.00
2007,08,29,02,59,12.00
2007,08,29,03,00,12.00
2007,08,29,03,01,12.00
2007,08,29,03,02,12.00
2007,08,29,03,03,12.00
2007,08,29,03,04,12.00
2007,08,29,03,05,12.00
2007,08,29,03,06,12.00
2007,08,29,03,07,12.00
2007,08,29,03,08,12.00
2007,08,29,03,09,12.00
2007,08,29,03,10,12.00
2007,08,29,03,11,12.00
2007,08,29,03,12,12.00
2007,08,29,03,13,12.00
2007,08,29,03,14,12.00
2007,08,29,03,15,11.90
2007,08,29,03,16,11.90
2007,08,29,03,17,11.90
2007,08,29,03,18,11.90
2007,08,29,03,19,11.90
2007,08,29,03,20,11.90
2007,08,29,03,21,11.90
2007,08,29,03,22,11.90
2007,08,29,03,23,11.90
2007,08,29,03,24,11.90
2007,08,29,03,25,11.90
2007,08,29,03,26,11.90
2007,08,29,03,27,11.90
2007,08,29,03,28,11.90
2007,08,29,03,29,11.90
2007,08,29,03,30,11.90
2007,08,29,03,31,11.90
2007,08,29,03,32,11.90
2007,08,29,03,33,11.90
2007,08,29,03,34,11.90
2007,08,29,03,35,11.90
2007,08,29,03,36,11.90
2007,08,29,03,37,11.90
2007,08,29,03,38,11.90
2007,08,29,03,39,11.90
2007,08,29,03,40,11.90
2007,08,29,03,41,11.90
2007,08,29,03,42,11.90
2007,08,29,03,43,11.90
2007,08,29,03,44,11.90
2007,08,29,03,45,11.90
2007,08,29,03,46,11.80
2007,08,29,03,47,11.80
2007,08,29,03,48,11.80
2007,08,29,03,49,11.80
2007,08,29,03,50,11.80
2007,08,29,03,51,11.80
2007,08,29,03,52,11.80
2007,08,29,03,53,11.80
2007,08,29,03,54,11.80
2007,08,29,03,55,11.80
2007,08,29,03,56,11.80
2007,08,29,03,57,11.80
2007,08,29,03,58,11.80
2007,08,29,03,59,11.80
2007,08,29,04,00,11.80
2007,08,29,04,01,11.80
2007,08,29,04,02,11.80
2007,08,29,04,03,11.80
2007,08,29,04,04,11.80
2007,08,29,04,05,11.80
2007,08,29,04,06,11.80
2007,08,29,04,07,11.80
2007,08,29,04,08,11.80
2007,08,29,04,09,11.80
2007,08,29,04,10,11.80
2007,08,29,04,11,11.80
2007,08,29,04,12,11.80
2007,08,29,04,13,11.80
2007,08,29,04,14,11.80
2007,08,29,04,15,11.80
2007,08,29,04,16,11.80
2007,08,29,04,17,11.70
2007,08,29,04,18,11.70
2007,08,29,04,19,11.70
2007,08,29,04,20,11.70
2007,08,29,04,21,11.70
2007,08,29,04,22,11.70
2007,08,29,04,23,11.70
2007,08,29,04,24,11.70
2007,08,29,04,25,11.70
2007,08,29,04,26,11.70
2007,08,29,04,27,11.70
2007,08,29,04,28,11.70
2007,08,29,04,29,11.70
2007,08,29,04,30,11.70
2007,08,29,04,31,11.70
2007,08,29,04,32,11.70
2007,08,29,04,33,11.70
2007,08,29,04,34,11.60
2007,08,29,04,35,11.60
2007,08,29,04,36,11.60
2007,08,29,04,37,11.60
2007,08,29,04,38,11.60
2007,08,29,04,39,11.60
2007,08,29,04,40,11.60
2007,08,29,04,41,11.60
2007,08,29,04,42,11.60
2007,08,29,04,43,11.60
2007,08,29,04,44,11.60
2007,08,29,04,45,11.60
2007,08,29,04,46,11.60
2007,08,29,04,47,11.60
2007,08,29,04,48,11.60
2007,08,29,04,49,11.60
2007,08,29,04,50,11.60
2007,08,29,04,51,11.60
2007,08,29,04,52,11.60
2007,08,29,04,53,11.60
2007,08,29,04,54,11.60
2007,08,29,04,55,11.60
2007,08,29,04,56,11.60
2007,08,29,04,57,11.60
2007,08,29,04,58,11.60
2007,08,29,04,59,11.60
2007,08,29,05,00,11.60
2007,08,29,05,01,11.50
2007,08,29,05,02,11.50
2007,08,29,05,03,11.40
2007,08,29,05,04,11.40
2007,08,29,05,05,11.40
2007,08,29,05,06,11.40
2007,08,29,05,07,11.40
2007,08,29,05,08,11.40
2007,08,29,05,09,11.40
2007,08,29,05,10,11.40
2007,08,29,05,11,11.40
2007,08,29,05,12,11.40
2007,08,29,05,13,11.40
2007,08,29,05,14,11.40
2007,08,29,05,15,11.40
2007,08,29,05,16,11.40
2007,08,29,05,17,11.40
2007,08,29,05,18,11.40
2007,08,29,05,19,11.40
2007,08,29,05,20,11.40
2007,08,29,05,21,11.40
2007,08,29,05,22,11.40
2007,08,29,05,23,11.40
2007,08,29,05,24,11.40
2007,08,29,05,25,11.40
2007,08,29,05,26,11.40
2007,08,29,05,27,11.40
2007,08,29,05,28,11.40
2007,08,29,05,29,11.40
2007,08,29,05,30,11.40
2007,08,29,05,31,11.40
2007,08,29,05,32,11.40
2007,08,29,05,33,11.40
2007,08,29,05,34,11.40
2007,08,29,05,35,11.40
2007,08,29,05,36,11.40
2007,08,29,05,37,11.40
2007,08,29,05,38,11.40
2007,08,29,05,39,11.40
2007,08,29,05,40,11.40
2007,08,29,05,41,11.40
2007,08,29,05,42,11.40
2007,08,29,05,43,11.40
2007,08,29,05,44,11.40
2007,08,29,05,45,11.40
2007,08,29,05,46,11.40
2007,08,29,05,47,11.40
2007,08,29,05,48,11.40
2007,08,29,05,49,11.40
2007,08,29,05,50,11.40
2007,08,29,05,51,11.50
2007,08,29,05,52,11.40
2007,08,29,05,53,11.40
2007,08,29,05,54,11.40
2007,08,29,05,55,11.40
2007,08,29,05,56,11.40
2007,08,29,05,57,11.40
2007,08,29,05,58,11.40
2007,08,29,05,59,11.40
2007,08,29,06,00,11.40
2007,08,29,06,01,11.40
2007,08,29,06,02,11.40
2007,08,29,06,03,11.40
2007,08,29,06,04,11.40
2007,08,29,06,05,11.40
2007,08,29,06,06,11.40
2007,08,29,06,07,11.40
2007,08,29,06,08,11.40
2007,08,29,06,09,11.40
2007,08,29,06,10,11.40
2007,08,29,06,11,11.40
2007,08,29,06,12,11.40
2007,08,29,06,13,11.40
2007,08,29,06,14,11.40
2007,08,29,06,15,11.40
2007,08,29,06,16,11.40
2007,08,29,06,17,11.30
2007,08,29,06,18,11.30
2007,08,29,06,19,11.30
2007,08,29,06,20,11.30
2007,08,29,06,21,11.30
2007,08,29,06,22,11.30
2007,08,29,06,23,11.30
2007,08,29,06,24,11.30
2007,08,29,06,25,11.30
2007,08,29,06,26,11.30
2007,08,29,06,27,11.30
2007,08,29,06,28,11.30
2007,08,29,06,29,11.30
2007,08,29,06,30,11.30
2007,08,29,06,31,11.30
2007,08,29,06,32,11.30
2007,08,29,06,33,11.30
2007,08,29,06,34,11.30
2007,08,29,06,35,11.30
2007,08,29,06,36,11.30
2007,08,29,06,37,11.30
2007,08,29,06,38,11.30
2007,08,29,06,39,11.30
2007,08,29,06,40,11.30
2007,08,29,06,41,11.30
2007,08,29,06,42,11.30
2007,08,29,06,43,11.40
2007,08,29,06,44,11.40
2007,08,29,06,45,11.40
2007,08,29,06,46,11.40
2007,08,29,06,47,11.40
2007,08,29,06,48,11.40
2007,08,29,06,49,11.40
2007,08,29,06,50,11.40
2007,08,29,06,51,11.40
2007,08,29,06,52,11.40
2007,08,29,06,53,11.40
2007,08,29,06,54,11.40
2007,08,29,06,55,11.40
2007,08,29,06,56,11.40
2007,08,29,06,57,11.40
2007,08,29,06,58,11.40
2007,08,29,06,59,11.40
2007,08,29,07,00,11.40
2007,08,29,07,01,11.40
2007,08,29,07,02,11.40
2007,08,29,07,03,11.40
2007,08,29,07,04,11.40
2007,08,29,07,05,11.40
2007,08,29,07,06,11.40
2007,08,29,07,07,11.40
2007,08,29,07,08,11.40
2007,08,29,07,09,11.40
2007,08,29,07,10,11.50
2007,08,29,07,11,11.60
2007,08,29,07,12,11.60
2007,08,29,07,13,11.60
2007,08,29,07,14,11.60
2007,08,29,07,15,11.60
2007,08,29,07,16,11.60
2007,08,29,07,17,11.60
2007,08,29,07,18,11.60
2007,08,29,07,19,11.60
2007,08,29,07,20,11.60
2007,08,29,07,21,11.60
2007,08,29,07,22,11.60
2007,08,29,07,23,11.60
2007,08,29,07,24,11.60
2007,08,29,07,25,11.60
2007,08,29,07,26,11.60
2007,08,29,07,27,11.70
2007,08,29,07,28,11.70
2007,08,29,07,29,11.80
2007,08,29,07,30,11.80
2007,08,29,07,31,11.80
2007,08,29,07,32,11.80
2007,08,29,07,33,11.80
2007,08,29,07,34,11.90
2007,08,29,07,35,11.90
2007,08,29,07,36,12.00
2007,08,29,07,37,12.00
2007,08,29,07,38,12.10
2007,08,29,07,39,12.10
2007,08,29,07,40,12.20
2007,08,29,07,41,12.20
2007,08,29,07,42,12.30
2007,08,29,07,43,12.30
2007,08,29,07,44,12.40
2007,08,29,07,45,12.40
2007,08,29,07,46,12.50
2007,08,29,07,47,12.50
2007,08,29,07,48,12.60
2007,08,29,07,49,12.70
2007,08,29,07,50,12.70
2007,08,29,07,51,12.80
2007,08,29,07,52,12.80
2007,08,29,07,53,12.80
2007,08,29,07,54,12.90
2007,08,29,07,55,13.00
2007,08,29,07,56,13.00
2007,08,29,07,57,13.10
2007,08,29,07,58,13.20
2007,08,29,07,59,13.20
2007,08,29,08,00,13.30
2007,08,29,08,01,13.30
2007,08,29,08,02,13.40
2007,08,29,08,03,13.40
2007,08,29,08,04,13.50
2007,08,29,08,05,13.60
2007,08,29,08,06,13.70
2007,08,29,08,07,13.70
2007,08,29,08,08,13.70
2007,08,29,08,09,13.80
2007,08,29,08,10,13.90
2007,08,29,08,11,14.00
2007,08,29,08,12,14.10
2007,08,29,08,13,14.30
2007,08,29,08,14,14.50
2007,08,29,08,15,14.70
2007,08,29,08,16,14.80
2007,08,29,08,17,14.90
2007,08,29,08,18,15.10
2007,08,29,08,19,15.20
2007,08,29,08,20,15.30
2007,08,29,08,21,15.40
2007,08,29,08,22,15.50
2007,08,29,08,23,15.60
2007,08,29,08,24,15.70
2007,08,29,08,25,15.80
2007,08,29,08,26,15.90
2007,08,29,08,27,16.00
2007,08,29,08,28,16.10
2007,08,29,08,29,16.10
2007,08,29,08,30,16.10
2007,08,29,08,31,16.20
2007,08,29,08,32,16.20
2007,08,29,08,33,16.20
2007,08,29,08,34,16.30
2007,08,29,08,35,16.30
2007,08,29,08,36,16.30
2007,08,29,08,37,16.40
2007,08,29,08,38,16.40
2007,08,29,08,39,16.40
2007,08,29,08,40,16.40
2007,08,29,08,41,16.40
2007,08,29,08,42,16.50
2007,08,29,08,43,16.60
2007,08,29,08,44,16.60
2007,08,29,08,45,16.60
2007,08,29,08,46,16.60
2007,08,29,08,47,16.60
2007,08,29,08,48,16.60
2007,08,29,08,49,16.60
2007,08,29,08,50,16.60
2007,08,29,08,51,16.70
2007,08,29,08,52,16.70
2007,08,29,08,53,16.70
2007,08,29,08,54,16.70
2007,08,29,08,55,16.70
2007,08,29,08,56,16.70
2007,08,29,08,57,16.80
2007,08,29,08,58,16.80
2007,08,29,08,59,16.80
2007,08,29,09,00,16.80
2007,08,29,09,01,16.80
2007,08,29,09,02,16.80
2007,08,29,09,03,16.80
2007,08,29,09,04,16.80
2007,08,29,09,05,16.80
2007,08,29,09,06,16.80
2007,08,29,09,07,16.80
2007,08,29,09,08,16.80
2007,08,29,09,09,16.80
2007,08,29,09,10,16.80
2007,08,29,09,11,16.80
2007,08,29,09,12,16.70
2007,08,29,09,13,16.70
2007,08,29,09,14,16.70
2007,08,29,09,15,16.70
2007,08,29,09,16,16.70
2007,08,29,09,17,16.70
2007,08,29,09,18,16.70
2007,08,29,09,19,16.80
2007,08,29,09,20,16.80
2007,08,29,09,21,16.80
2007,08,29,09,22,16.90
2007,08,29,09,23,16.90
2007,08,29,09,24,16.90
2007,08,29,09,25,16.90
2007,08,29,09,26,17.00
2007,08,29,09,27,17.00
2007,08,29,09,28,17.00
2007,08,29,09,29,17.00
2007,08,29,09,30,17.00
2007,08,29,09,31,17.10
2007,08,29,09,32,17.10
2007,08,29,09,33,17.10
2007,08,29,09,34,17.20
2007,08,29,09,35,17.20
2007,08,29,09,36,17.20
2007,08,29,09,37,17.30
2007,08,29,09,38,17.30
2007,08,29,09,39,17.40
2007,08,29,09,40,17.40
2007,08,29,09,41,17.50
2007,08,29,09,42,17.50
2007,08,29,09,43,17.50
2007,08,29,09,44,17.50
2007,08,29,09,45,17.60
2007,08,29,09,46,17.60
2007,08,29,09,47,17.70
2007,08,29,09,48,17.70
2007,08,29,09,49,17.70
2007,08,29,09,50,17.70
2007,08,29,09,51,17.70
2007,08,29,09,52,17.70
2007,08,29,09,53,17.70
2007,08,29,09,54,17.70
2007,08,29,09,55,17.80
2007,08,29,09,56,17.80
2007,08,29,09,57,17.80
2007,08,29,09,58,17.70
2007,08,29,09,59,17.70
2007,08,29,10,00,17.70
2007,08,29,10,01,17.70
2007,08,29,10,02,17.70
2007,08,29,10,03,17.80
2007,08,29,10,04,17.90
2007,08,29,10,05,17.90
2007,08,29,10,06,17.90
2007,08,29,10,07,17.90
2007,08,29,10,08,17.90
2007,08,29,10,09,17.90
2007,08,29,10,10,17.90
2007,08,29,10,11,18.00
2007,08,29,10,12,18.10
2007,08,29,10,13,18.10
2007,08,29,10,14,18.20
2007,08,29,10,15,18.20
2007,08,29,10,16,18.20
2007,08,29,10,17,18.20
2007,08,29,10,18,18.20
2007,08,29,10,19,18.30
2007,08,29,10,20,18.30
2007,08,29,10,21,18.30
2007,08,29,10,22,18.30
2007,08,29,10,23,18.40
2007,08,29,10,24,18.40
2007,08,29,10,25,18.40
2007,08,29,10,26,18.50
2007,08,29,10,27,18.50
2007,08,29,10,28,18.50
2007,08,29,10,29,18.60
2007,08,29,10,30,18.60
2007,08,29,10,31,18.60
2007,08,29,10,32,18.70
2007,08,29,10,33,18.80
2007,08,29,10,34,18.80
2007,08,29,10,35,18.90
2007,08,29,10,36,18.90
2007,08,29,10,37,18.90
2007,08,29,10,38,18.90
2007,08,29,10,39,18.90
2007,08,29,10,40,18.90
2007,08,29,10,41,18.90
2007,08,29,10,42,18.80
2007,08,29,10,43,18.80
2007,08,29,10,44,18.80
2007,08,29,10,45,18.80
2007,08,29,10,46,18.90
2007,08,29,10,47,18.90
2007,08,29,10,48,18.90
2007,08,29,10,49,18.90
2007,08,29,10,50,18.90
2007,08,29,10,51,18.90
2007,08,29,10,52,18.90
2007,08,29,10,53,18.90
2007,08,29,10,54,18.90
2007,08,29,10,55,18.90
2007,08,29,10,56,19.10
2007,08,29,10,57,19.10
2007,08,29,10,58,19.20
2007,08,29,10,59,19.20
2007,08,29,11,00,19.30
2007,08,29,11,01,19.30
2007,08,29,11,02,19.40
2007,08,29,11,03,19.40
2007,08,29,11,04,19.50
2007,08,29,11,05,19.50
2007,08,29,11,06,19.50
2007,08,29,11,07,19.50
2007,08,29,11,08,19.60
2007,08,29,11,09,19.50
2007,08,29,11,10,19.50
2007,08,29,11,11,19.50
2007,08,29,11,12,19.60
2007,08,29,11,13,19.50
2007,08,29,11,14,19.40
2007,08,29,11,15,19.40
2007,08,29,11,16,19.40
2007,08,29,11,17,19.50
2007,08,29,11,18,19.50
2007,08,29,11,19,19.50
2007,08,29,11,20,19.50
2007,08,29,11,21,19.50
2007,08,29,11,22,19.60
2007,08,29,11,23,19.60
2007,08,29,11,24,19.70
2007,08,29,11,25,19.70
2007,08,29,11,26,19.70
2007,08,29,11,27,19.70
2007,08,29,11,28,19.70
2007,08,29,11,29,19.70
2007,08,29,11,30,19.80
2007,08,29,11,31,19.80
2007,08,29,11,32,19.80
2007,08,29,11,33,19.80
2007,08,29,11,34,19.90
2007,08,29,11,35,19.90
2007,08,29,11,36,19.90
2007,08,29,11,37,19.90
2007,08,29,11,38,19.90
2007,08,29,11,39,19.90
2007,08,29,11,40,19.90
2007,08,29,11,41,20.10
2007,08,29,11,42,20.20
2007,08,29,11,43,20.20
2007,08,29,11,44,20.20
2007,08,29,11,45,20.20
2007,08,29,11,46,20.20
2007,08,29,11,47,20.20
2007,08,29,11,48,20.20
2007,08,29,11,49,20.20
2007,08,29,11,50,20.20
2007,08,29,11,51,20.30
2007,08,29,11,52,20.30
2007,08,29,11,53,20.30
2007,08,29,11,54,20.40
2007,08,29,11,55,20.40
2007,08,29,11,56,20.40
2007,08,29,11,57,20.40
2007,08,29,11,58,20.30
2007,08,29,11,59,20.40
2007,08,29,12,00,20.40
2007,08,29,12,01,20.40
2007,08,29,12,02,20.40
2007,08,29,12,03,20.50
2007,08,29,12,04,20.50
2007,08,29,12,05,20.50
2007,08,29,12,06,20.50
2007,08,29,12,07,20.50
2007,08,29,12,08,20.50
2007,08,29,12,09,20.50
2007,08,29,12,10,20.50
2007,08,29,12,11,20.50
2007,08,29,12,12,20.60
2007,08,29,12,13,20.60
2007,08,29,12,14,20.70
2007,08,29,12,15,20.80
2007,08,29,12,16,20.80
2007,08,29,12,17,20.80
2007,08,29,12,18,20.90
2007,08,29,12,19,20.90
2007,08,29,12,20,20.90
2007,08,29,12,21,21.00
2007,08,29,12,22,21.10
2007,08,29,12,23,21.10
2007,08,29,12,24,21.20
2007,08,29,12,25,21.30
2007,08,29,12,26,21.30
2007,08,29,12,27,21.30
2007,08,29,12,28,21.30
2007,08,29,12,29,21.50
2007,08,29,12,30,21.60
2007,08,29,12,31,21.70
2007,08,29,12,32,21.80
2007,08,29,12,33,21.90
2007,08,29,12,34,22.00
2007,08,29,12,35,22.10
2007,08,29,12,36,22.10
2007,08,29,12,37,22.10
2007,08,29,12,38,22.10
2007,08,29,12,39,22.00
2007,08,29,12,40,22.00
2007,08,29,12,41,22.00
2007,08,29,12,42,22.00
2007,08,29,12,43,22.00
2007,08,29,12,44,21.90
2007,08,29,12,45,21.80
2007,08,29,12,46,21.80
2007,08,29,12,47,21.70
2007,08,29,12,48,21.80
2007,08,29,12,49,21.80
2007,08,29,12,50,21.70
2007,08,29,12,51,21.80
2007,08,29,12,52,21.80
2007,08,29,12,53,21.80
2007,08,29,12,54,21.90
2007,08,29,12,55,22.00
2007,08,29,12,56,22.10
2007,08,29,12,57,22.20
2007,08,29,12,58,22.20
2007,08,29,12,59,22.30
2007,08,29,13,00,22.30
2007,08,29,13,01,22.30
2007,08,29,13,02,22.40
2007,08,29,13,03,22.40
2007,08,29,13,04,22.40
2007,08,29,13,05,22.40
2007,08,29,13,06,22.40
2007,08,29,13,07,22.40
2007,08,29,13,08,22.40
2007,08,29,13,09,22.40
2007,08,29,13,10,22.30
2007,08,29,13,11,22.30
2007,08,29,13,12,22.20
2007,08,29,13,13,22.20
2007,08,29,13,14,22.30
2007,08,29,13,15,22.30
2007,08,29,13,16,22.40
2007,08,29,13,17,22.40
2007,08,29,13,18,22.50
2007,08,29,13,19,22.60
2007,08,29,13,20,22.60
2007,08,29,13,21,22.60
2007,08,29,13,22,22.60
2007,08,29,13,23,22.60
2007,08,29,13,24,22.60
2007,08,29,13,25,22.70
2007,08,29,13,26,22.80
2007,08,29,13,27,22.90
2007,08,29,13,28,22.90
2007,08,29,13,29,22.90
2007,08,29,13,30,23.10
2007,08,29,13,31,23.10
2007,08,29,13,32,23.20
2007,08,29,13,33,23.30
2007,08,29,13,34,23.30
2007,08,29,13,35,23.40
2007,08,29,13,36,23.50
2007,08,29,13,37,23.60
2007,08,29,13,38,23.60
2007,08,29,13,39,23.70
2007,08,29,13,40,23.80
2007,08,29,13,41,23.80
2007,08,29,13,42,23.80
2007,08,29,13,43,23.80
2007,08,29,13,44,23.70
2007,08,29,13,45,23.70
2007,08,29,13,46,23.70
2007,08,29,13,47,23.70
2007,08,29,13,48,23.60
2007,08,29,13,49,23.50
2007,08,29,13,50,23.40
2007,08,29,13,51,23.30
2007,08,29,13,52,23.40
2007,08,29,13,53,23.50
2007,08,29,13,54,23.70
2007,08,29,13,55,23.70
2007,08,29,13,56,23.70
2007,08,29,13,57,23.80
2007,08,29,13,58,23.90
2007,08,29,13,59,23.90
2007,08,29,14,00,24.00
2007,08,29,14,01,24.00
2007,08,29,14,02,23.90
2007,08,29,14,03,23.90
2007,08,29,14,04,23.90
2007,08,29,14,05,24.00
2007,08,29,14,06,24.10
2007,08,29,14,07,24.10
2007,08,29,14,08,24.10
2007,08,29,14,09,23.90
2007,08,29,14,10,23.80
2007,08,29,14,11,23.80
2007,08,29,14,12,23.80
2007,08,29,14,13,23.90
2007,08,29,14,14,24.00
2007,08,29,14,15,24.10
2007,08,29,14,16,24.10
2007,08,29,14,17,24.20
2007,08,29,14,18,24.20
2007,08,29,14,19,24.20
2007,08,29,14,20,24.10
2007,08,29,14,21,23.90
2007,08,29,14,22,23.80
2007,08,29,14,23,23.70
2007,08,29,14,24,23.80
2007,08,29,14,25,23.80
2007,08,29,14,26,23.80
2007,08,29,14,27,23.90
2007,08,29,14,28,23.90
2007,08,29,14,29,24.00
2007,08,29,14,30,24.10
2007,08,29,14,31,24.10
2007,08,29,14,32,24.20
2007,08,29,14,33,24.20
2007,08,29,14,34,24.30
2007,08,29,14,35,24.30
2007,08,29,14,36,24.20
2007,08,29,14,37,24.20
2007,08,29,14,38,24.30
2007,08,29,14,39,24.20
2007,08,29,14,40,24.30
2007,08,29,14,41,24.40
2007,08,29,14,42,24.40
2007,08,29,14,43,24.30
2007,08,29,14,44,24.30
2007,08,29,14,45,24.20
2007,08,29,14,46,24.10
2007,08,29,14,47,24.10
2007,08,29,14,48,24.10
2007,08,29,14,49,24.10
2007,08,29,14,50,24.10
2007,08,29,14,51,24.10
2007,08,29,14,52,24.20
2007,08,29,14,53,24.30
2007,08,29,14,54,24.40
2007,08,29,14,55,24.40
2007,08,29,14,56,24.40
2007,08,29,14,57,24.50
2007,08,29,14,58,24.60
2007,08,29,14,59,24.60
2007,08,29,15,00,24.60
2007,08,29,15,01,24.60
2007,08,29,15,02,24.60
2007,08,29,15,03,24.70
2007,08,29,15,04,24.70
2007,08,29,15,05,24.70
2007,08,29,15,06,24.70
2007,08,29,15,07,24.70
2007,08,29,15,08,24.80
2007,08,29,15,09,24.80
2007,08,29,15,10,24.80
2007,08,29,15,11,24.80
2007,08,29,15,12,24.80
2007,08,29,15,13,24.70
2007,08,29,15,14,24.80
2007,08,29,15,15,24.80
2007,08,29,15,16,24.80
2007,08,29,15,17,24.80
2007,08,29,15,18,24.80
2007,08,29,15,19,24.90
2007,08,29,15,20,24.90
2007,08,29,15,21,25.00
2007,08,29,15,22,25.10
2007,08,29,15,23,25.30
2007,08,29,15,24,25.30
2007,08,29,15,25,25.20
2007,08,29,15,26,25.20
2007,08,29,15,27,25.10
2007,08,29,15,28,25.00
2007,08,29,15,29,25.00
2007,08,29,15,30,24.90
2007,08,29,15,31,24.90
2007,08,29,15,32,25.00
2007,08,29,15,33,25.00
2007,08,29,15,34,25.00
2007,08,29,15,35,25.00
2007,08,29,15,36,25.00
2007,08,29,15,37,25.10
2007,08,29,15,38,25.10
2007,08,29,15,39,25.10
2007,08,29,15,40,25.20
2007,08,29,15,41,25.20
2007,08,29,15,42,25.20
2007,08,29,15,43,25.20
2007,08,29,15,44,25.30
2007,08,29,15,45,25.30
2007,08,29,15,46,25.30
2007,08,29,15,47,25.30
2007,08,29,15,48,25.30
2007,08,29,15,49,25.40
2007,08,29,15,50,25.40
2007,08,29,15,51,25.50
2007,08,29,15,52,25.50
2007,08,29,15,53,25.50
2007,08,29,15,54,25.40
2007,08,29,15,55,25.40
2007,08,29,15,56,25.40
2007,08,29,15,57,25.40
2007,08,29,15,58,25.40
2007,08,29,15,59,25.50
2007,08,29,16,00,25.60
2007,08,29,16,01,25.60
2007,08,29,16,02,25.70
2007,08,29,16,03,25.70
2007,08,29,16,04,25.70
2007,08,29,16,05,25.70
2007,08,29,16,06,25.70
2007,08,29,16,07,25.70
2007,08,29,16,08,25.80
2007,08,29,16,09,25.90
2007,08,29,16,10,26.00
2007,08,29,16,11,26.10
2007,08,29,16,12,26.20
2007,08,29,16,13,26.20
2007,08,29,16,14,26.20
2007,08,29,16,15,26.10
2007,08,29,16,16,26.10
2007,08,29,16,17,26.10
2007,08,29,16,18,26.00
2007,08,29,16,19,26.00
2007,08,29,16,20,26.00
2007,08,29,16,21,26.00
2007,08,29,16,22,26.10
2007,08,29,16,23,26.20
2007,08,29,16,24,26.20
2007,08,29,16,25,26.20
2007,08,29,16,26,26.20
2007,08,29,16,27,26.10
2007,08,29,16,28,26.20
2007,08,29,16,29,26.20
2007,08,29,16,30,26.20
2007,08,29,16,31,26.20
2007,08,29,16,32,26.20
2007,08,29,16,33,26.20
2007,08,29,16,34,26.20
2007,08,29,16,35,26.30
2007,08,29,16,36,26.30
2007,08,29,16,37,26.20
2007,08,29,16,38,26.20
2007,08,29,16,39,26.30
2007,08,29,16,40,26.30
2007,08,29,16,41,26.30
2007,08,29,16,42,26.30
2007,08,29,16,43,26.30
2007,08,29,16,44,26.30
2007,08,29,16,45,26.30
2007,08,29,16,46,26.30
2007,08,29,16,47,26.30
2007,08,29,16,48,26.30
2007,08,29,16,49,26.30
2007,08,29,16,50,26.40
2007,08,29,16,51,26.40
2007,08,29,16,52,26.40
2007,08,29,16,53,26.40
2007,08,29,16,54,26.40
2007,08,29,16,55,26.40
2007,08,29,16,56,26.40
2007,08,29,16,57,26.40
2007,08,29,16,58,26.40
2007,08,29,16,59,26.40
2007,08,29,17,00,26.40
2007,08,29,17,01,26.60
2007,08,29,17,02,26.60
2007,08,29,17,03,26.60
2007,08,29,17,04,26.60
2007,08,29,17,05,26.60
2007,08,29,17,06,26.60
2007,08,29,17,07,26.60
2007,08,29,17,08,26.60
2007,08,29,17,09,26.40
2007,08,29,17,10,26.40
2007,08,29,17,11,26.40
2007,08,29,17,12,26.40
2007,08,29,17,13,26.40
2007,08,29,17,14,26.40
2007,08,29,17,15,26.40
2007,08,29,17,16,26.60
2007,08,29,17,17,26.60
2007,08,29,17,18,26.60
2007,08,29,17,19,26.60